Find OneWeb SL0531

NORAD ID: 54146 Int'l Des: 2022-138 Owner: ONEWEBN Country: UK Constellation: oneweb operational
LEOCIRCULARPOLARONEWEB_TYPE

現在のビュー

3D地球を読み込み中...

About OneWeb SL0531

OneWeb SL0531 (NORAD 54146) is a oneweb constellation satellite launched Oct 22, 2022 by ONEWEBN of UK. It operates in LEO, CIRCULAR, POLAR, ONEWEB_TYPE orbit with a mass of 148.00 kg.

OneWeb SL0531について

説明を読み込み中...

次回通過

Passes for default location (London). Set your location on the main map for personalized predictions.

高度履歴

Loading altitude history...

軌道要素

1 54146U 22138AK 26195.58121327 -.00000028 00000-0 -10049-3 0 9997
2 54146 87.9186 268.9766 0002559 81.2140 278.9283 13.20773243182925
Epoch: Jul 14, 2026 • Age: 8 hours

現在のステータス

高度 1191.3 km
遠地点 / 近地点 N/A
速度 7.26 km/s
衛星直下点 -22.71°S, 176.67°W
打ち上げ日 Oct 22, 2022
運用期間 3.7 years
タイプ internet

技術仕様

分類 Payload
質量 148.00 kg
乾燥質量 140.00 kg
総質量 148.00 kg
長さ 1.30 m
直径 1.00 m
スパン 5.00 m
形状 Trapezoid+2 pan
製造者 ONEWUS
バスタイプ ARROW
フェーズステータス In Orbit
所有者/国 ONEWEBN/UK

Most Searched